Home   Weather   Halifax   Past weeks

Flag for Canada Past Weather in Halifax, Nova Scotia, Canada — Yesterday and Last 2 Weeks

Now
25 °F

Overcast.


Feels Like: 25 °F
Forecast: 25 / 34 °F
Wind: 2 mph from Southwest

Location: Halifax International Airport

Current Time: Dec 5, 2016 at 11:04:40 pm

Latest Report: Dec 5, 2016 at 10:00 pm


Visibility: 15 mi

Pressure: 29.93 "Hg

Humidity: 86%

Dew Point: 21 °F

Location of HalifaxLocation

Past Weather in Halifax — Graph

°F

Halifax Temperature Yesterday

Maximum temperature yesterday: 34 °F (at 12:00 am)
Minimum temperature yesterday: 27 °F (at 11:00 pm)
Average temperature yesterday: 30 °F

High & Low Weather Summary for the Past Weeks

 TemperatureHumidityPressure
High48 °F (Nov 21, 10:00 am)100% (Nov 20, 11:00 pm)30.38 "Hg (Nov 20, 11:00 pm)
Low23 °F (Dec 5, 7:00 am)62% (Nov 21, 1:00 pm)29.25 "Hg (Dec 1, 11:00 pm)
Average35 °F89%29.85 "Hg
* Reported Nov 20 10:00 pm — Dec 5 10:00 pm, Halifax, Weather by CustomWeather, © 2016

Note: Actual official high and low records may vary slightly from our data, if they occured in-between our weather recording intervals... More about our weather records

Advertising

Halifax Weather History for the Previous 24 Hours

Scroll right to see more
 ConditionsComfort  
Time TempWeatherWind HumidityBarometerVisibility
10:00 pm
Mon, Dec 5
25 °FOvercast.2 mph86%29.93 "Hg15 mi
9:00 pm25 °FOvercast.2 mph86%29.93 "Hg15 mi
8:00 pm27 °FOvercast.2 mph74%29.95 "Hg15 mi
7:00 pm27 °FOvercast.No wind74%29.97 "Hg15 mi
6:00 pm27 °FMostly cloudy.3 mph74%29.97 "Hg15 mi
5:00 pm27 °FMostly cloudy.3 mph74%29.97 "Hg15 mi
4:00 pm28 °FMore clouds than sun.3 mph69%29.97 "Hg15 mi
3:00 pm28 °FMore clouds than sun.5 mph69%29.96 "Hg15 mi
2:00 pm28 °FCloudy.8 mph69%29.98 "Hg15 mi
1:00 pm28 °FBroken clouds.7 mph69%29.98 "Hg15 mi
12:00 pm28 °FPartly sunny.9 mph69%30.00 "Hg15 mi
11:00 am27 °FPartly sunny.6 mph69%30.04 "Hg15 mi
10:00 am25 °FScattered clouds.12 mph74%30.06 "Hg15 mi
9:00 am23 °FScattered clouds.9 mph80%30.05 "Hg15 mi
8:00 am23 °FPartly sunny.9 mph86%30.03 "Hg15 mi
7:00 am23 °FPassing clouds.10 mph86%30.03 "Hg15 mi
6:00 am25 °FPassing clouds.12 mph80%30.03 "Hg15 mi
5:00 am25 °FPassing clouds.10 mph80%30.03 "Hg15 mi
4:00 am27 °FPassing clouds.13 mph74%30.03 "Hg15 mi
3:00 am27 °FPassing clouds.12 mph74%30.03 "Hg15 mi
2:00 am27 °FPassing clouds.16 mph74%30.03 "Hg15 mi
1:00 am27 °FPassing clouds.13 mph74%30.03 "Hg15 mi
12:00 am27 °FPassing clouds.14 mph74%30.03 "Hg15 mi
11:00 pm
Sun, Dec 4
27 °FPassing clouds.17 mph74%30.03 "Hg15 mi
Weather by CustomWeather, © 2016

See weather overviewHow to use our weather pages